TimeCST,TemperatureF,Dew PointF,Humidity,Sea Level PressureIn,VisibilityMPH,Wind Direction,Wind SpeedMPH,Gust SpeedMPH,PrecipitationIn,Events,Conditions,WindDirDegrees,DateUTC
12:09 AM,24.4,21.2,87,30.10,10.0,Calm,Calm,-,N/A,,Clear,0,2012-12-14 06:09:00
12:30 AM,23.9,21.0,89,30.10,10.0,Calm,Calm,-,N/A,,Clear,0,2012-12-14 06:30:00
12:50 AM,24.1,20.8,87,30.10,10.0,Calm,Calm,-,N/A,,Clear,0,2012-12-14 06:50:00
1:09 AM,23.7,20.8,89,30.10,10.0,Calm,Calm,-,N/A,,Clear,0,2012-12-14 07:09:00
1:30 AM,22.3,19.2,88,30.09,10.0,North,3.5,-,N/A,,Clear,350,2012-12-14 07:30:00
1:49 AM,22.1,19.9,91,30.10,10.0,Calm,Calm,-,N/A,,Clear,0,2012-12-14 07:49:00
2:10 AM,23.0,20.7,91,30.10,10.0,Calm,Calm,-,N/A,,Clear,0,2012-12-14 08:10:00
2:50 AM,24.4,21.0,87,30.10,10.0,Calm,Calm,-,N/A,,Clear,0,2012-12-14 08:50:00
3:10 AM,24.8,21.0,86,30.10,10.0,Calm,Calm,-,N/A,,Clear,0,2012-12-14 09:10:00
3:30 AM,24.4,20.8,86,30.10,10.0,Calm,Calm,-,N/A,,Clear,0,2012-12-14 09:30:00
3:50 AM,23.9,20.1,85,30.10,10.0,Calm,Calm,-,N/A,,Clear,0,2012-12-14 09:50:00
4:10 AM,22.8,20.3,90,30.09,10.0,NE,3.5,-,N/A,,Clear,50,2012-12-14 10:10:00
4:30 AM,20.8,18.5,91,30.09,7.0,Calm,Calm,-,N/A,,Clear,0,2012-12-14 10:30:00
4:49 AM,20.1,18.7,94,30.09,7.0,Calm,Calm,-,N/A,,Clear,0,2012-12-14 10:49:00
5:10 AM,21.0,19.2,93,30.08,7.0,NE,3.5,-,N/A,,Clear,50,2012-12-14 11:10:00
5:30 AM,21.6,19.4,91,30.08,10.0,ENE,3.5,-,N/A,,Clear,60,2012-12-14 11:30:00
5:50 AM,21.6,19.6,92,30.08,10.0,ENE,3.5,-,N/A,,Clear,70,2012-12-14 11:50:00
6:10 AM,21.2,18.7,90,30.08,10.0,ESE,3.5,-,N/A,,Clear,120,2012-12-14 12:10:00
6:30 AM,21.9,19.6,91,30.08,10.0,ESE,4.6,-,N/A,,Clear,120,2012-12-14 12:30:00
6:50 AM,21.7,19.8,92,30.08,10.0,ESE,4.6,-,N/A,,Clear,110,2012-12-14 12:50:00
7:10 AM,23.2,19.9,87,30.07,10.0,ENE,4.6,-,N/A,,Clear,70,2012-12-14 13:10:00
7:30 AM,23.5,20.3,87,30.08,10.0,SE,3.5,-,N/A,,Clear,130,2012-12-14 13:30:00
7:50 AM,21.0,18.5,90,30.09,7.0,SSE,4.6,-,N/A,,Clear,150,2012-12-14 13:50:00
8:10 AM,21.2,19.0,91,30.09,7.0,SSE,4.6,-,N/A,,Clear,150,2012-12-14 14:10:00
8:50 AM,24.8,21.7,88,30.08,10.0,SE,5.8,-,N/A,,Clear,130,2012-12-14 14:50:00
9:09 AM,26.4,22.5,85,30.08,10.0,SE,5.8,-,N/A,,Clear,130,2012-12-14 15:09:00
9:30 AM,28.2,23.2,81,30.09,10.0,SE,5.8,-,N/A,,Clear,130,2012-12-14 15:30:00
9:50 AM,29.7,23.9,79,30.08,10.0,SE,5.8,-,N/A,,Clear,140,2012-12-14 15:50:00
10:10 AM,30.6,24.1,77,30.07,10.0,SE,8.1,-,N/A,,Clear,140,2012-12-14 16:10:00
10:50 AM,32.5,25.5,75,30.05,10.0,SE,8.1,-,N/A,,Clear,140,2012-12-14 16:50:00
11:10 AM,35.4,26.2,69,30.04,10.0,SE,8.1,-,N/A,,Clear,130,2012-12-14 17:10:00
11:30 AM,37.4,26.8,66,30.03,10.0,SE,8.1,-,N/A,,Clear,130,2012-12-14 17:30:00
11:50 AM,38.5,27.3,64,30.02,10.0,SE,8.1,-,N/A,,Clear,140,2012-12-14 17:50:00
12:10 PM,40.1,27.9,62,30.01,10.0,SE,8.1,-,N/A,,Clear,140,2012-12-14 18:10:00
12:30 PM,40.5,27.7,60,30.01,10.0,SE,9.2,-,N/A,,Clear,140,2012-12-14 18:30:00
12:50 PM,41.4,28.4,60,30.00,10.0,SE,9.2,-,N/A,,Clear,140,2012-12-14 18:50:00
1:10 PM,41.9,28.4,59,29.99,10.0,SE,11.5,-,N/A,,Clear,130,2012-12-14 19:10:00
1:30 PM,42.3,28.6,58,29.97,10.0,SE,8.1,-,N/A,,Clear,130,2012-12-14 19:30:00
1:50 PM,42.8,28.9,58,29.97,10.0,SE,9.2,-,N/A,,Clear,140,2012-12-14 19:50:00
2:10 PM,42.1,29.1,60,29.96,10.0,SE,9.2,-,N/A,,Clear,140,2012-12-14 20:10:00
2:30 PM,42.4,29.3,60,29.95,10.0,SE,8.1,-,N/A,,Clear,130,2012-12-14 20:30:00
2:50 PM,43.0,29.3,59,29.94,10.0,SE,10.4,-,N/A,,Clear,130,2012-12-14 20:50:00
3:10 PM,41.9,29.1,61,29.93,10.0,ESE,11.5,-,N/A,,Clear,120,2012-12-14 21:10:00
3:30 PM,41.0,29.1,63,29.94,10.0,SE,10.4,-,N/A,,Clear,130,2012-12-14 21:30:00
3:50 PM,40.5,29.1,64,29.94,10.0,SE,8.1,-,N/A,,Clear,130,2012-12-14 21:50:00
4:09 PM,39.7,28.9,65,29.94,10.0,SE,9.2,-,N/A,,Clear,130,2012-12-14 22:09:00
4:30 PM,39.2,28.4,65,29.93,10.0,SE,8.1,-,N/A,,Clear,130,2012-12-14 22:30:00
4:50 PM,38.5,28.4,67,29.92,10.0,SE,9.2,-,N/A,,Clear,130,2012-12-14 22:50:00
5:10 PM,38.3,28.4,68,29.92,10.0,ESE,6.9,-,N/A,,Clear,120,2012-12-14 23:10:00
5:30 PM,37.9,28.4,69,29.92,10.0,SE,9.2,-,N/A,,Clear,130,2012-12-14 23:30:00
5:50 PM,37.6,28.6,70,29.92,10.0,SE,11.5,-,N/A,,Clear,130,2012-12-14 23:50:00
6:30 PM,37.9,29.1,71,29.92,10.0,SE,13.8,-,N/A,,Clear,130,2012-12-15 00:30:00
6:49 PM,37.8,29.3,72,29.92,10.0,SE,11.5,-,N/A,,Clear,140,2012-12-15 00:49:00
7:10 PM,37.2,29.7,74,29.92,10.0,SE,11.5,-,N/A,,Clear,130,2012-12-15 01:10:00
7:30 PM,36.9,30.0,76,29.92,10.0,SE,9.2,-,N/A,,Clear,130,2012-12-15 01:30:00
7:50 PM,36.9,30.2,77,29.91,10.0,SE,9.2,-,N/A,,Clear,130,2012-12-15 01:50:00
8:09 PM,37.4,30.6,76,29.90,10.0,SE,10.4,-,N/A,,Clear,140,2012-12-15 02:09:00
8:30 PM,37.8,30.7,76,29.90,10.0,SE,9.2,-,N/A,,Clear,140,2012-12-15 02:30:00
8:50 PM,38.5,30.7,74,29.89,10.0,SE,9.2,-,N/A,,Mostly Cloudy,140,2012-12-15 02:50:00
9:10 PM,38.7,30.9,74,29.88,10.0,SE,11.5,-,N/A,,Overcast,140,2012-12-15 03:10:00
9:30 PM,39.2,30.9,72,29.87,10.0,SSE,12.7,17.3,N/A,,Overcast,150,2012-12-15 03:30:00
9:50 PM,39.2,30.9,72,29.86,10.0,SE,12.7,-,N/A,,Overcast,140,2012-12-15 03:50:00
10:10 PM,39.2,31.1,73,29.86,10.0,SSE,11.5,-,N/A,,Overcast,150,2012-12-15 04:10:00
10:30 PM,39.2,31.1,73,29.84,10.0,SE,12.7,17.3,N/A,,Overcast,140,2012-12-15 04:30:00
10:50 PM,39.4,31.1,72,29.84,10.0,SE,10.4,-,N/A,,Overcast,140,2012-12-15 04:50:00
11:10 PM,39.6,31.1,72,29.82,10.0,SE,10.4,-,N/A,,Overcast,130,2012-12-15 05:10:00
11:30 PM,39.6,31.3,72,29.82,10.0,SSE,9.2,-,N/A,,Overcast,150,2012-12-15 05:30:00
11:50 PM,39.4,31.5,73,29.82,10.0,SE,10.4,-,N/A,,Overcast,140,2012-12-15 05:50:00